GW5591 Weather Reports


time (UTC)temp
F
wind
direction
speed
knots
gust
knots
rain 1hr
in
rain 24hr
in
rain mn
in
humidity
%
barometer
mb
20260504050305 42 60 0.0 0.0 0.00 0.00 0.00 57 1015.0
20260504045802 42 60 0.0 0.0 0.00 0.00 0.00 61 1014.9
20260504045256 42 60 0.0 0.0 0.00 0.00 0.00 57 1014.8
20260504044754 42 60 0.0 0.0 0.00 0.00 0.00 64 1015.1
20260504044251 42 60 0.0 0.0 0.00 0.00 0.00 63 1014.9
20260504043748 42 60 0.0 0.0 0.00 0.00 0.00 60 1014.9
20260504043245 42 60 0.0 0.0 0.00 0.00 0.00 60 1014.8
20260504042743 42 60 0.0 0.0 0.00 0.00 0.00 58 1014.7
20260504042240 42 60 0.0 0.0 0.00 0.00 0.00 58 1014.9
20260504041736 42 60 0.0 0.0 0.00 0.00 0.00 60 1015.0
20260504041232 42 60 0.0 0.0 0.00 0.00 0.00 62 1014.8
20260504040728 42 60 0.0 0.0 0.00 0.00 0.00 66 1015.0
20260504040225 42 60 0.0 0.0 0.00 0.00 0.00 66 1015.1
20260504035721 42 60 0.0 0.9 0.00 0.00 0.00 64 1014.9
20260504035220 42 60 0.0 0.0 0.00 0.00 0.00 61 1015.1
20260504034717 42 60 0.0 0.0 0.00 0.00 0.00 61 1015.1
20260504034214 43 60 0.0 0.0 0.00 0.00 0.00 58 1015.0
20260504033711 43 60 0.0 0.9 0.00 0.00 0.00 62 1015.0
20260504033208 43 60 0.0 0.0 0.00 0.00 0.00 63 1014.9
20260504032705 42 59 0.0 0.9 0.00 0.00 0.00 60 1015.0
20260504032202 42 62 0.0 0.9 0.00 0.00 0.00 61 1015.1
20260504031659 42 60 0.0 0.9 0.00 0.00 0.00 60 1015.1
20260504031155 42 55 0.9 0.9 0.00 0.00 0.00 60 1014.9
20260504030652 42 101 0.0 0.9 0.00 0.00 0.00 58 1015.0
20260504030148 42 104 0.0 0.0 0.00 0.00 0.00 58 1014.9
20260504025645 43 104 0.0 0.0 0.00 0.00 0.00 58 1015.0
20260504025143 43 106 0.0 0.0 0.00 0.00 0.00 57 1015.1
20260504024640 43 106 0.0 0.0 0.00 0.00 0.00 58 1015.0
20260504024136 43 106 0.0 0.0 0.00 0.00 0.00 57 1014.9
20260504023633 43 107 0.0 0.0 0.00 0.00 0.00 58 1015.3
20260504023129 44 107 0.0 0.0 0.00 0.00 0.00 58 1015.0
20260504022625 44 108 0.0 0.0 0.00 0.00 0.00 62 1014.9
20260504022121 44 110 0.0 0.0 0.00 0.00 0.00 57 1014.9
20260504021619 44 145 0.0 0.0 0.00 0.00 0.00 57 1014.9
20260504021115 44 145 0.0 0.0 0.00 0.00 0.00 56 1014.9
20260504020613 44 146 0.0 0.9 0.00 0.00 0.00 55 1014.9
20260504020109 44 146 0.0 0.0 0.00 0.00 0.00 56 1014.8
20260504015605 45 146 0.0 0.0 0.00 0.00 0.00 54 1014.9
20260504015101 45 146 0.0 0.0 0.00 0.00 0.00 56 1014.8
20260504014557 45 146 0.0 0.9 0.00 0.00 0.00 58 1014.8
20260504014055 45 146 0.0 0.0 0.00 0.00 0.00 52 1014.9
20260504013552 45 147 0.0 0.0 0.00 0.00 0.00 51 1014.9
20260504013049 45 153 0.0 0.0 0.00 0.00 0.00 54 1014.8
20260504012547 45 128 0.0 0.0 0.00 0.00 0.00 58 1014.7
20260504012044 45 146 0.0 0.9 0.00 0.00 0.00 56 1014.6
20260504011541 45 149 0.0 0.0 0.00 0.00 0.00 58 1014.6
20260504011037 45 155 0.0 0.9 0.00 0.00 0.00 55 1014.5
20260504010533 45 161 0.0 0.0 0.00 0.00 0.00 56 1014.7
20260504010029 45 168 0.9 0.9 0.00 0.00 0.00 55 1014.8
20260504005527 45 153 0.0 0.9 0.00 0.00 0.00 57 1014.7
20260504005024 45 171 0.0 0.9 0.00 0.00 0.00 56 1014.7
20260504004522 45 181 0.0 0.9 0.00 0.00 0.00 54 1014.8
20260504004018 46 211 0.0 0.9 0.00 0.00 0.00 56 1014.6
20260504003514 46 153 0.0 0.9 0.00 0.00 0.00 50 1014.7
20260504003011 46 146 0.0 0.9 0.00 0.00 0.00 53 1014.6
20260504002508 47 142 0.0 0.0 0.00 0.00 0.00 52 1014.8
20260504002005 47 137 0.9 0.9 0.00 0.00 0.00 46 1014.6
20260504001503 47 295 0.0 0.0 0.00 0.00 0.00 48 1014.7
20260504000959 47 152 0.0 0.9 0.00 0.00 0.00 51 1014.4
20260504000456 48 152 0.0 0.0 0.00 0.00 0.00 48 1014.4
20260503235953 48 148 0.0 0.0 0.00 0.00 0.00 43 1014.7
20260503235451 49 156 0.0 0.9 0.00 0.00 0.00 43 1014.6
20260503234948 49 191 0.9 0.9 0.00 0.00 0.00 46 1014.7
20260503234446 49 125 0.0 0.0 0.00 0.00 0.00 44 1014.5
20260503233944 49 117 0.0 0.0 0.00 0.00 0.00 43 1014.5
20260503233440 50 134 0.0 0.9 0.00 0.00 0.00 44 1014.4
20260503232936 50 259 0.0 1.7 0.00 0.00 0.00 41 1014.5
20260503232433 50 21 1.7 1.7 0.00 0.00 0.00 41 1014.8
20260503231931 50 167 1.7 1.7 0.00 0.00 0.00 41 1014.4
20260503231428 50 143 0.9 1.7 0.00 0.00 0.00 40 1014.3
20260503230925 50 129 2.6 3.5 0.00 0.00 0.00 39 1014.4
20260503230421 51 91 0.0 0.9 0.00 0.00 0.00 43 1014.5
20260503225919 51 87 0.0 2.6 0.00 0.00 0.00 39 1014.4
20260503225415 51 132 0.9 1.7 0.00 0.00 0.00 42 1014.6
20260503224911 51 176 0.9 0.9 0.00 0.00 0.00 42 1014.3
20260503224408 51 291 0.9 1.7 0.00 0.00 0.00 40 1014.5
20260503223906 51 233 0.9 1.7 0.00 0.00 0.00 39 1014.4
20260503223404 51 147 0.9 2.6 0.00 0.00 0.00 40 1014.6
20260503222859 51 113 0.0 0.9 0.00 0.00 0.00 39 1014.4
20260503222358 52 294 1.7 3.5 0.00 0.00 0.00 39 1014.6
20260503221856 52 123 0.0 1.7 0.00 0.00 0.00 39 1014.4
20260503221354 52 125 0.0 1.7 0.00 0.00 0.00 37 1014.5
20260503220850 52 256 2.6 3.5 0.00 0.00 0.00 38 1014.7
20260503220347 52 144 1.7 6.1 0.00 0.00 0.00 38 1014.4
20260503215844 53 205 0.9 1.7 0.00 0.00 0.00 37 1014.5
20260503215341 53 144 2.6 3.5 0.00 0.00 0.00 37 1014.5
20260503214838 52 147 0.9 1.7 0.00 0.00 0.00 37 1014.5
20260503214336 53 118 1.7 3.5 0.00 0.00 0.00 36 1014.5
20260503213833 53 134 2.6 6.1 0.00 0.00 0.00 36 1014.6
20260503213330 52 165 0.0 1.7 0.00 0.00 0.00 40 1014.5
20260503212827 53 316 1.7 1.7 0.00 0.00 0.00 37 1014.7
20260503212325 53 209 0.9 1.7 0.00 0.00 0.00 37 1014.7
20260503211822 53 152 0.9 1.7 0.00 0.00 0.00 38 1014.4
20260503211319 54 118 0.0 3.5 0.00 0.00 0.00 38 1014.7
20260503210819 54 108 1.7 1.7 0.00 0.00 0.00 34 1014.7
20260503210316 55 256 1.7 6.1 0.00 0.00 0.00 35 1014.6
20260503205811 55 126 0.9 1.7 0.00 0.00 0.00 38 1014.6
20260503205308 53 136 0.9 5.2 0.00 0.00 0.00 38 1014.8
20260503204805 54 145 0.0 2.6 0.00 0.00 0.00 35 1014.8
20260503204303 54 145 0.9 1.7 0.00 0.00 0.00 37 1014.9
20260503203759 55 148 0.9 7.8 0.00 0.00 0.00 37 1014.9
20260503203257 55 151 4.3 5.2 0.00 0.00 0.00 36 1014.8
20260503202754 54 161 3.5 6.1 0.00 0.00 0.00 40 1014.9
20260503202252 53 125 0.0 1.7 0.00 0.00 0.00 38 1014.9
20260503201749 53 148 1.7 2.6 0.00 0.00 0.00 36 1015.3
20260503201247 54 312 0.9 3.5 0.00 0.00 0.00 36 1015.4
20260503200743 52 87 0.9 3.5 0.00 0.00 0.00 37 1015.1
20260503200239 55 168 0.0 3.5 0.00 0.00 0.00 36 1015.4
20260503195736 54 165 0.9 2.6 0.00 0.00 0.00 35 1015.3
20260503195233 54 23 1.7 1.7 0.00 0.00 0.00 35 1015.5
20260503194731 56 344 3.5 6.1 0.00 0.00 0.00 34 1015.6
20260503194226 53 272 1.7 2.6 0.00 0.00 0.00 36 1015.7
20260503193723 54 239 1.7 3.5 0.00 0.00 0.00 34 1015.7
20260503193219 56 303 4.3 5.2 0.00 0.00 0.00 36 1015.6
20260503192715 55 147 0.0 1.7 0.00 0.00 0.00 36 1015.7
20260503192210 54 310 0.9 5.2 0.00 0.00 0.00 36 1015.8
20260503191707 54 155 0.9 2.6 0.00 0.00 0.00 35 1015.9
20260503191204 52 8 0.0 1.7 0.00 0.00 0.00 39 1015.8
20260503190701 52 164 0.0 2.6 0.00 0.00 0.00 39 1016.1
20260503190157 52 254 0.0 2.6 0.00 0.00 0.00 38 1015.7
20260503185655 51 289 0.9 1.7 0.00 0.00 0.00 42 1016.1
20260503185150 52 143 1.7 5.2 0.00 0.00 0.00 38 1016.1
20260503184646 52 153 1.7 2.6 0.00 0.00 0.00 37 1016.0
20260503184142 53 120 0.0 2.6 0.00 0.00 0.00 41 1016.0
20260503183638 52 193 3.5 7.8 0.00 0.00 0.00 36 1016.1
20260503183136 51 149 3.5 3.5 0.00 0.00 0.00 39 1016.2
20260503182634 52 305 0.9 2.6 0.00 0.00 0.00 38 1016.3
20260503182132 51 143 0.9 2.6 0.00 0.00 0.00 41 1016.4
20260503181628 51 174 4.3 7.0 0.00 0.00 0.00 42 1016.0
20260503181125 52 144 1.7 2.6 0.00 0.00 0.00 40 1016.0
20260503180622 53 151 2.6 6.1 0.00 0.00 0.00 40 1016.0
20260503180120 52 64 1.7 2.6 0.00 0.00 0.00 37 1016.3
20260503175616 52 299 3.5 5.2 0.00 0.00 0.00 39 1016.1
20260503175113 53 154 1.7 2.6 0.00 0.00 0.00 42 1016.1
20260503174610 52 137 1.7 2.6 0.00 0.00 0.00 41 1015.8
20260503174107 51 166 1.7 5.2 0.00 0.00 0.00 40 1016.4
20260503173602 50 151 0.0 2.6 0.00 0.00 0.00 42 1016.2
20260503173100 51 168 3.5 3.5 0.00 0.00 0.00 39 1016.1
20260503172556 51 157 2.6 3.5 0.00 0.00 0.00 40 1016.1
20260503172053 50 182 3.5 5.2 0.00 0.00 0.00 45 1016.7
20260503171549 50 335 1.7 3.5 0.00 0.00 0.00 43 1016.7
20260503171047 49 266 1.7 3.5 0.00 0.00 0.00 43 1016.7
20260503170543 50 254 3.5 7.8 0.00 0.00 0.00 41 1016.5
20260503150936 45 141 0.0 2.6 0.00 0.00 0.00 49 1017.4
20260503150432 45 106 0.0 3.5 0.00 0.00 0.00 48 1017.4
20260503131325 38 272 1.7 2.6 0.00 0.00 0.00 72 1017.1
20260503130823 37 149 2.6 3.5 0.00 0.00 0.00 75 1017.2
20260503130320 37 140 0.0 1.7 0.00 0.00 0.00 75 1017.2
20260503110714 31 148 0.0 0.9 0.00 0.00 0.00 94 1016.3
20260503110211 31 131 0.0 0.9 0.00 0.00 0.00 94 1016.2
20260503100137 32 117 0.0 0.9 0.00 0.00 0.00 93 1015.4
20260503081532 32 140 0.9 0.9 0.00 0.00 0.00 90 1015.0
20260503081030 32 139 0.0 0.0 0.00 0.00 0.00 90 1015.1
20260503080526 32 130 0.0 0.9 0.00 0.00 0.00 90 1015.0
20260503072459 33 120 0.9 0.9 0.00 0.00 0.00 88 1014.8
20260503071956 33 145 0.0 0.9 0.00 0.00 0.00 87 1014.6
20260503071453 33 205 1.7 1.7 0.00 0.00 0.00 87 1014.4
20260503070949 33 147 0.0 0.9 0.00 0.00 0.00 87 1014.6
20260503070447 33 129 0.0 3.5 0.00 0.00 0.00 86 1014.5